Location: El Portezuelo
(28.4984°N, 16.3589°W)
Time: 15:41:54
(UTC+00:00)

STARLINK-1009 - Pass Details

Date: 20 January 2020
Orbit: 398 x 400 km, 53.0° (Epoch: 21 February)

Event Time Altitude Azimuth Distance (km) Brightness Sun altitude
Exits shadow 05:17:55 - 105° (ESE) 1,752 7.0 -34.9°
Enters shadow 06:25:23 -52° 222° (SW) 10,554 10.1 -20.3°
Maximum altitude 06:53:48 55° 313° (NW) 518 3.1 -14.2°
